TimeMST,TemperatureF,Dew PointF,Humidity,Sea Level PressureIn,VisibilityMPH,Wind Direction,Wind SpeedMPH,Gust SpeedMPH,PrecipitationIn,Events,Conditions,WindDirDegrees,DateUTC
12:53 AM,46.0,10.9,24,29.85,10.0,SW,32.2,49.5,N/A,,Clear,220,2013-01-24 07:53:00
1:53 AM,46.9,10.9,23,29.86,10.0,SW,38.0,48.3,N/A,,Mostly Cloudy,220,2013-01-24 08:53:00
2:53 AM,46.0,12.0,25,29.88,10.0,SW,28.8,41.4,N/A,,Overcast,220,2013-01-24 09:53:00
3:53 AM,46.9,12.0,24,29.86,10.0,SW,26.5,44.9,N/A,,Overcast,220,2013-01-24 10:53:00
4:53 AM,46.0,12.9,26,29.89,10.0,SW,38.0,48.3,N/A,,Overcast,220,2013-01-24 11:53:00
5:53 AM,46.9,12.9,25,29.91,10.0,SW,33.4,50.6,N/A,,Overcast,230,2013-01-24 12:53:00
6:53 AM,46.9,19.9,34,29.93,10.0,SW,33.4,48.3,N/A,,Overcast,220,2013-01-24 13:53:00
7:53 AM,46.0,19.0,34,29.88,10.0,SW,33.4,56.4,N/A,,Mostly Cloudy,220,2013-01-24 14:53:00
8:53 AM,46.0,18.0,33,29.93,10.0,SW,27.6,40.3,N/A,,Overcast,230,2013-01-24 15:53:00
9:53 AM,46.0,19.9,35,29.94,10.0,SW,26.5,38.0,N/A,,Overcast,220,2013-01-24 16:53:00
10:53 AM,46.0,21.0,37,29.97,10.0,WSW,20.7,27.6,N/A,,Overcast,250,2013-01-24 17:53:00
11:53 AM,46.9,21.0,36,29.98,10.0,West,15.0,25.3,N/A,,Overcast,270,2013-01-24 18:53:00
12:53 PM,48.9,23.0,36,29.96,10.0,West,21.9,28.8,N/A,,Mostly Cloudy,270,2013-01-24 19:53:00
1:53 PM,50.0,21.9,33,29.93,10.0,West,29.9,40.3,N/A,,Clear,260,2013-01-24 20:53:00
2:53 PM,48.9,21.0,33,29.93,10.0,WSW,27.6,34.5,N/A,,Clear,250,2013-01-24 21:53:00
3:53 PM,48.0,21.0,34,29.95,10.0,West,25.3,34.5,N/A,,Clear,260,2013-01-24 22:53:00
4:53 PM,45.0,21.9,40,30.00,10.0,West,18.4,27.6,N/A,,Clear,260,2013-01-24 23:53:00
5:53 PM,41.0,21.0,45,30.04,10.0,SW,17.3,-,N/A,,Clear,230,2013-01-25 00:53:00
6:53 PM,39.9,21.9,49,30.06,10.0,SW,23.0,31.1,N/A,,Clear,230,2013-01-25 01:53:00
7:53 PM,41.0,21.9,47,30.06,10.0,SW,28.8,39.1,N/A,,Clear,230,2013-01-25 02:53:00
8:53 PM,39.9,21.9,49,30.07,10.0,SW,31.1,36.8,N/A,,Clear,230,2013-01-25 03:53:00
9:53 PM,39.9,21.9,49,30.08,10.0,SSW,25.3,38.0,N/A,,Clear,210,2013-01-25 04:53:00
10:53 PM,39.0,21.9,50,30.10,10.0,SSW,23.0,31.1,N/A,,Clear,210,2013-01-25 05:53:00
11:53 PM,39.0,21.0,49,30.09,10.0,SW,18.4,29.9,N/A,,Clear,230,2013-01-25 06:53:00